Content
SEND FEEDBACK

Daily
Averages
Monthly
Summary
United States of America

CAMPBELL, MISSOURI


Home > North America > United States > Missouri
Elevation: 310 feet     Latitude: 36 29N     Longitude: 090 04W

WEATHER
 
SELECT A DAY
Number of Records: 207,828;   Date Range: 1/1/95 - 8/30/14
 
SHARE

PRINT THIS DATA

[ ← Previous Day ]
WEATHER ALMANAC - OCTOBER 22, 2013
[ Next Day → ]
[ °C ]   °F
Weather ElementAverageHighLow
Temperature50.5 °F64.9 °F (3:53 pm)37.9 °F (6:53 am)
Dewpoint39 °F44.1 °F (6:53 pm)35.1 °F (6:53 am)
Humidity67.9 %93 % (4:40 am)40 % (3:53 pm)
Barometer30.01 in30.09 in (5:53 am)29.88 in (4:53 pm)
Wind Speed4 mph11.5 mph (12:53 pm)
Wind Gust20.7 mph (9:53 pm)
Weather ElementAverage
Visibility8.6 mi
Wind DirectionESE (106.7 °)

Weather ElementTotal
Precipitation---
Heating Degree Days13.6 (Base 65)
Growing Degree Days1.4 (Base 50)
Averaged from 27 records on October 22, 2013
WEATHER CONDITIONS BREAKOUT
WIND DIRECTION BREAKOUT
WEATHER BY HOUR - OCTOBER 22, 2013
[ °C ]   °F
Local TimeTemperatureDewpointHumidityBarometerVisibilityWind DirectionWind SpeedGust SpeedPrecipitationEventsConditions
1:53 AM44.1 °F39.9 °F85 %30.08 in10.0 miCalmClear
2:53 AM42.1 °F39.0 °F89 %30.08 in10.0 miCalmClear
3:10 AM42.8 °F37.4 °F81 %30.08 in1.8 miCalmClear
3:20 AM42.8 °F37.4 °F81 %30.08 in3.0 miCalmClear
3:53 AM41.0 °F37.9 °F89 %30.08 in8.0 miCalmClear
4:16 AM41.0 °F37.4 °F87 %30.07 in1.8 miCalmClear
4:40 AM39.2 °F37.4 °F93 %30.08 in3.0 miCalmClear
4:53 AM39.0 °F36.0 °F89 %30.08 in10.0 miCalmClear
5:53 AM39.0 °F36.0 °F89 %30.09 in10.0 miCalmClear
6:53 AM37.9 °F35.1 °F89 %30.08 in10.0 miCalmClear
7:53 AM39.9 °F37.0 °F89 %30.07 in10.0 miCalmClear
8:53 AM48.0 °F42.1 °F80 %30.09 in10.0 miCalmClear
9:53 AM52.0 °F39.9 °F63 %30.08 in10.0 miSouth (170°)4.6 mphClear
10:53 AM55.0 °F37.9 °F53 %30.05 in10.0 miSE (140°)8.1 mphClear
11:53 AM57.9 °F36.0 °F44 %30.04 in10.0 miSSE (160°)4.6 mphMostly Cloudy
12:53 PM60.1 °F37.0 °F42 %30.00 in10.0 miSSW (200°)11.5 mphMostly Cloudy
1:53 PM63.0 °F39.0 °F41 %29.94 in10.0 miSSW (210°)11.5 mphScattered Clouds
2:53 PM62.1 °F39.0 °F43 %29.90 in8.0 miSouth (190°)10.4 mphOvercast
3:53 PM64.9 °F39.9 °F40 %29.89 in7.0 miSW (220°)10.4 mphMostly Cloudy
4:53 PM64.0 °F41.0 °F43 %29.88 in10.0 miVariable5.8 mphClear
5:53 PM61.0 °F42.1 °F50 %29.88 in10.0 miSW (220°)4.6 mphPartly Cloudy
6:53 PM55.0 °F44.1 °F67 %29.88 in10.0 miSouth (190°)4.6 mphClear
7:53 PM55.0 °F44.1 °F67 %29.89 in10.0 miSSW (210°)5.8 mphMostly Cloudy
8:53 PM54.0 °F44.1 °F69 %29.91 in10.0 miCalmClear
9:53 PM57.0 °F41.0 °F55 %29.94 in10.0 miNNW (330°)10.4 mph20.7 mphMostly Cloudy
10:53 PM55.0 °F37.9 °F53 %29.96 in10.0 miNW (320°)10.4 mphClear
11:53 PM51.1 °F37.9 °F61 %29.96 in10.0 miNW (320°)5.8 mphClear
Hourly data recorded from KPOF, located miles away from Campbell, Missouri







STORIES FROM OUR PARTNERS